Location: �terpigny
(49.8910°N, 2.9249°E)
Time: 06:52:23
(UTC+00:00)

Gurwin Techsat 1B - Pass Details

Date: 02 July 2022
Orbit: 812 x 813 km, 98.8° (Epoch: 14 August)

Event Time Altitude Azimuth Distance (km) Brightness Sun altitude
Rises 01:36:02 0° 22° (NNE) 3,348 13.9 -13.5°
Reaches altitude 10° 01:38:41 10° 33° (NNE) 2,411 12.5 -13.3°
Maximum altitude 01:43:21 30° 95° (E) 1,415 10.1 -13.0°
Drops below altitude 10° 01:47:59 10° 156° (SSE) 2,395 10.7 -12.7°
Enters shadow 01:49:02 - 161° (SSE) 2,758 11.0 -12.6°
